| time (UTC) | temp C | wind direction | speed KPH | gust KPH | rain 1hr cm | rain 24hr cm | rain mn cm | humidity % | barometer mb |
| 20260506170045 | 19 | 205 | 3.2 | 11.3 | 0.00 | 0.00 | 0.00 | 64 | 1018.5 |
| 20260506164551 | 18 | 180 | 1.6 | 8.0 | 0.00 | 0.00 | 0.00 | 67 | 1018.4 |
| 20260506163042 | 18 | 165 | 1.6 | 9.7 | 0.00 | 0.00 | 0.00 | 69 | 1018.5 |
| 20260506161540 | 17 | 196 | 4.8 | 11.3 | 0.00 | 0.00 | 0.00 | 74 | 1018.5 |
| 20260506160045 | 17 | 156 | 1.6 | 11.3 | 0.00 | 0.00 | 0.00 | 79 | 1018.5 |
| 20260506154543 | 16 | 207 | 1.6 | 9.7 | 0.00 | 0.00 | 0.00 | 82 | 1018.3 |
| 20260506153037 | 16 | 61 | 1.6 | 8.0 | 0.00 | 0.00 | 0.00 | 84 | 1018.5 |
| 20260506151544 | 15 | 0 | 1.6 | 8.0 | 0.00 | 0.00 | 0.00 | 86 | 1018.5 |
| 20260506150049 | 14 | 55 | 1.6 | 6.4 | 0.00 | 0.00 | 0.00 | 86 | 1018.5 |
| 20260506144538 | 13 | 137 | 1.6 | 6.4 | 0.00 | 0.00 | 0.00 | 87 | 1018.5 |
| 20260506143040 | 12 | 0 | 0.0 | 4.8 | 0.00 | 0.00 | 0.00 | 87 | 1018.5 |
| 20260506141545 | 12 | 0 | 0.0 | 0.0 | 0.00 | 0.00 | 0.00 | 86 | 1018.3 |
| 20260506140044 | 11 | 0 | 0.0 | 0.0 | 0.00 | 0.00 | 0.00 | 86 | 1018.2 |
| 20260506134541 | 10 | 0 | 0.0 | 0.0 | 0.00 | 0.00 | 0.00 | 86 | 1018.3 |
| 20260506133050 | 10 | 0 | 0.0 | 0.0 | 0.00 | 0.00 | 0.00 | 85 | 1018.2 |
| 20260506131538 | 11 | 0 | 0.0 | 0.0 | 0.00 | 0.00 | 0.00 | 85 | 1017.9 |
| 20260506130038 | 11 | 0 | 0.0 | 0.0 | 0.00 | 0.00 | 0.00 | 85 | 1017.8 |
| 20260506124537 | 11 | 0 | 0.0 | 0.0 | 0.00 | 0.00 | 0.00 | 85 | 1017.7 |
| 20260506123044 | 11 | 0 | 0.0 | 0.0 | 0.00 | 0.00 | 0.00 | 85 | 1017.5 |
| 20260506121545 | 11 | 0 | 0.0 | 0.0 | 0.00 | 0.00 | 0.00 | 85 | 1017.5 |
| 20260506120056 | 11 | 0 | 0.0 | 0.0 | 0.00 | 0.00 | 0.00 | 84 | 1017.5 |
| 20260506114544 | 11 | 0 | 0.0 | 0.0 | 0.00 | 0.08 | 0.00 | 84 | 1017.4 |
| 20260506113037 | 11 | 0 | 0.0 | 0.0 | 0.00 | 0.08 | 0.00 | 84 | 1017.4 |
| 20260506111546 | 11 | 0 | 0.0 | 0.0 | 0.00 | 0.08 | 0.00 | 84 | 1017.1 |
| 20260506110048 | 11 | 0 | 0.0 | 0.0 | 0.00 | 0.08 | 0.00 | 83 | 1017.2 |
| 20260506104553 | 12 | 0 | 0.0 | 0.0 | 0.00 | 0.36 | 0.00 | 83 | 1017.3 |
| 20260506103044 | 12 | 0 | 0.0 | 0.0 | 0.00 | 0.36 | 0.00 | 83 | 1017.4 |
| 20260506101544 | 12 | 0 | 0.0 | 0.0 | 0.00 | 0.36 | 0.00 | 83 | 1017.3 |
| 20260506100053 | 12 | 0 | 0.0 | 0.0 | 0.00 | 0.36 | 0.00 | 82 | 1017.3 |
| 20260506094543 | 11 | 0 | 0.0 | 0.0 | 0.00 | 0.38 | 0.00 | 82 | 1017.4 |
| 20260506093040 | 12 | 0 | 0.0 | 0.0 | 0.00 | 0.38 | 0.00 | 81 | 1017.4 |
| 20260506091544 | 12 | 0 | 0.0 | 0.0 | 0.00 | 0.38 | 0.00 | 81 | 1017.4 |
| 20260506090044 | 12 | 0 | 0.0 | 0.0 | 0.00 | 0.38 | 0.00 | 81 | 1017.5 |
| 20260506084610 | 12 | 0 | 0.0 | 0.0 | 0.00 | 0.41 | 0.00 | 81 | 1017.6 |
| 20260506083045 | 12 | 0 | 0.0 | 0.0 | 0.00 | 0.41 | 0.00 | 80 | 1017.7 |
| 20260506081556 | 12 | 0 | 0.0 | 0.0 | 0.00 | 0.41 | 0.00 | 79 | 1017.7 |
| 20260506073049 | 13 | 0 | 0.0 | 0.0 | 0.00 | 0.43 | 0.00 | 78 | 1017.7 |
| 20260506071544 | 13 | 0 | 0.0 | 0.0 | 0.00 | 0.43 | 0.00 | 77 | 1017.7 |
| 20260506061537 | 14 | 0 | 0.0 | 0.0 | 0.00 | 0.51 | 0.43 | 74 | 1017.3 |
| 20260506044544 | 15 | 0 | 0.0 | 0.0 | 0.00 | 0.51 | 0.43 | 67 | 1016.5 |
| 20260506043045 | 16 | 0 | 0.0 | 1.6 | 0.00 | 0.51 | 0.43 | 66 | 1016.5 |
| 20260506041538 | 16 | 0 | 0.0 | 0.0 | 0.00 | 0.51 | 0.43 | 65 | 1016.3 |
| 20260506040040 | 16 | 0 | 0.0 | 1.6 | 0.00 | 0.51 | 0.43 | 63 | 1016.0 |
| 20260506034544 | 17 | 0 | 0.0 | 1.6 | 0.00 | 0.51 | 0.43 | 62 | 1015.8 |
| 20260506033043 | 17 | 0 | 0.0 | 3.2 | 0.00 | 0.51 | 0.43 | 60 | 1015.7 |
| 20260506031543 | 17 | 0 | 0.0 | 4.8 | 0.00 | 0.51 | 0.43 | 58 | 1015.6 |
| 20260506030040 | 17 | 0 | 0.0 | 3.2 | 0.00 | 0.51 | 0.43 | 54 | 1015.2 |
| 20260506024544 | 17 | 294 | 1.6 | 8.0 | 0.00 | 0.51 | 0.43 | 50 | 1015.0 |
| 20260506023100 | 17 | 0 | 0.0 | 4.8 | 0.00 | 0.51 | 0.43 | 50 | 1014.9 |
| 20260506021753 | 18 | 298 | 1.6 | 9.7 | 0.00 | 0.51 | 0.43 | 52 | 1014.8 |
| 20260506020039 | 18 | 300 | 1.6 | 6.4 | 0.00 | 0.51 | 0.43 | 51 | 1014.6 |
| 20260506014544 | 18 | 280 | 0.0 | 9.7 | 0.00 | 0.51 | 0.43 | 54 | 1014.5 |
| 20260506013053 | 18 | 299 | 1.6 | 8.0 | 0.00 | 0.51 | 0.43 | 55 | 1014.3 |
| 20260506011612 | 18 | 0 | 3.2 | 12.9 | 0.00 | 0.51 | 0.43 | 54 | 1014.4 |
| 20260506010055 | 18 | 281 | 3.2 | 12.9 | 0.00 | 0.51 | 0.43 | 54 | 1014.3 |
| 20260506004554 | 19 | 288 | 1.6 | 12.9 | 0.00 | 0.51 | 0.43 | 54 | 1014.2 |
| 20260506003044 | 19 | 350 | 1.6 | 9.7 | 0.00 | 0.51 | 0.43 | 56 | 1014.2 |
| 20260506001554 | 18 | 293 | 1.6 | 6.4 | 0.00 | 0.51 | 0.43 | 54 | 1014.2 |
| 20260506000047 | 19 | 0 | 1.6 | 9.7 | 0.00 | 0.51 | 0.43 | 53 | 1014.2 |
| 20260505234540 | 19 | 316 | 1.6 | 14.5 | 0.00 | 0.51 | 0.43 | 51 | 1014.3 |
| 20260505233044 | 21 | 302 | 1.6 | 11.3 | 0.00 | 0.51 | 0.43 | 47 | 1014.3 |
| 20260505231603 | 21 | 321 | 3.2 | 14.5 | 0.00 | 0.51 | 0.43 | 46 | 1014.3 |
| 20260505230044 | 20 | 158 | 1.6 | 12.9 | 0.00 | 0.51 | 0.43 | 48 | 1014.2 |
| 20260505224540 | 20 | 225 | 0.0 | 14.5 | 0.00 | 0.51 | 0.43 | 49 | 1014.3 |
| 20260505223048 | 20 | 206 | 4.8 | 14.5 | 0.00 | 0.51 | 0.43 | 45 | 1014.5 |
| 20260505221548 | 20 | 231 | 8.0 | 20.9 | 0.00 | 0.51 | 0.43 | 46 | 1014.6 |
| 20260505220048 | 21 | 250 | 4.8 | 19.3 | 0.00 | 0.51 | 0.43 | 44 | 1014.6 |
| 20260505214552 | 21 | 192 | 6.4 | 16.1 | 0.00 | 0.51 | 0.43 | 46 | 1014.8 |
| 20260505213042 | 20 | 207 | 6.4 | 16.1 | 0.00 | 0.51 | 0.43 | 48 | 1014.9 |
| 20260505211545 | 20 | 132 | 6.4 | 17.7 | 0.00 | 0.51 | 0.43 | 48 | 1014.9 |
| 20260505210046 | 21 | 180 | 8.0 | 17.7 | 0.00 | 0.51 | 0.43 | 48 | 1015.0 |
| 20260505204543 | 20 | 157 | 6.4 | 22.5 | 0.00 | 0.51 | 0.43 | 52 | 1014.9 |
| 20260505203107 | 20 | 191 | 6.4 | 19.3 | 0.00 | 0.51 | 0.43 | 53 | 1014.9 |
| 20260505201545 | 20 | 192 | 9.7 | 19.3 | 0.00 | 0.51 | 0.43 | 54 | 1014.9 |
| 20260505200047 | 20 | 134 | 9.7 | 25.7 | 0.00 | 0.51 | 0.43 | 55 | 1015.1 |
| 20260505194540 | 21 | 200 | 4.8 | 24.1 | 0.00 | 0.51 | 0.43 | 54 | 1015.0 |
| 20260505193044 | 20 | 182 | 6.4 | 17.7 | 0.00 | 0.51 | 0.43 | 54 | 1015.1 |
| 20260505191547 | 20 | 303 | 4.8 | 12.9 | 0.00 | 0.51 | 0.43 | 50 | 1015.1 |
| 20260505190043 | 20 | 299 | 3.2 | 8.0 | 0.00 | 0.51 | 0.43 | 52 | 1015.2 |
| 20260505184540 | 21 | 248 | 3.2 | 12.9 | 0.00 | 0.51 | 0.43 | 52 | 1015.2 |
| 20260505183048 | 21 | 235 | 3.2 | 12.9 | 0.00 | 0.51 | 0.43 | 51 | 1015.2 |
| 20260505181543 | 20 | 342 | 1.6 | 8.0 | 0.00 | 0.51 | 0.43 | 55 | 1015.1 |
| 20260505180051 | 20 | 192 | 3.2 | 11.3 | 0.00 | 0.51 | 0.43 | 57 | 1015.1 |
| 20260505174543 | 19 | 273 | 3.2 | 11.3 | 0.00 | 0.51 | 0.43 | 58 | 1014.9 |
| 20260505173040 | 18 | 204 | 3.2 | 17.7 | 0.00 | 0.51 | 0.43 | 61 | 1014.7 |
| 20260505171547 | 18 | 242 | 1.6 | 9.7 | 0.00 | 0.51 | 0.43 | 66 | 1014.7 |